Location: Newark
(31.5350°N, 35.0986°E)
Time: 18:58:28
(UTC+00:00)

Vanguard 1 - Pass Details

Date: 29 September 2019
Orbit: 653 x 3830 km, 34.2° (Epoch: 20 October)

Event Time Altitude Azimuth Distance (km) Brightness Sun altitude
Rises 05:49:14 0° 286° (WNW) 7,323 14.0 27.7°
Reaches altitude 10° 05:56:29 10° 273° (W) 5,750 13.5 29.1°
Maximum altitude 06:06:43 20° 234° (SW) 3,946 13.0 31.1°
Drops below altitude 10° 06:13:58 10° 191° (S) 3,886 13.4 32.5°
Sets 06:17:37 0° 174° (S) 4,419 13.8 33.2°
